Home > Weather > Mountain View > Past weeks

Flag for U.S.A. Weather for the Past 2 Weeks in Mountain View, California, U.S.A.

Now
56 °F

Clear.


Feels Like: 55 °F
Forecast: 47 / 71 °F
Wind: 6 mph from West

Location: Moffett Field

Current Time: Feb 6, 2016 at 10:09:38 PM

Latest Report: Feb 6, 2016 at 8:56 PM


Visibility: 10 mi

Pressure: 30.33 "Hg

Humidity: 67%

Dew point: 45 °F

Location of Mountain ViewLocation

Historic Weather in Mountain View — Graph

°F

Mountain View Temperature Yesterday

Maximum temperature yesterday: 62 °F (at 1:56 PM)
Minimum temperature yesterday: 41 °F (at 5:56 AM)
Average temperature yesterday: 52 °F

High & Low Weather Summary for the Past Weeks

 TemperatureHumidityPressure
High67 °F (Jan 29, 11:56 AM)96% (Jan 29, 11:56 PM)30.48 "Hg (Jan 29, 11:56 PM)
Low40 °F (Feb 3, 3:56 AM)33% (Feb 1, 2:56 PM)29.78 "Hg (Jan 31, 1:56 PM)
Average53 °F72%30.24 "Hg
* Reported Jan 22 8:56 PM — Feb 6 8:56 PM, Mountain View, Weather by CustomWeather, © 2016

Note: Actual official high and low records may vary slightly from our data, if they occured in-between our weather recording intervals... More about our weather records

Advertising

Mountain View Weather History for the Previous 24 Hours

 ConditionsComfort  
Time TempWeatherWind HumidityBarometerVisibility
8:56 PM
Sat, Feb 6
56 °FClear.6 mph67%30.33 "Hg10 mi
7:56 PM56 °FClear.3 mph62%30.32 "Hg10 mi
6:56 PM56 °FClear.No wind65%30.32 "Hg10 mi
5:56 PM60 °FClear.3 mph56%30.32 "Hg10 mi
4:56 PM61 °FSunny.7 mph65%30.32 "Hg10 mi
3:56 PM63 °FSunny.8 mph60%30.33 "Hg10 mi
2:56 PM63 °FSunny.10 mph65%30.33 "Hg10 mi
1:56 PM64 °FSunny.No wind54%30.35 "Hg10 mi
12:56 PM61 °FSunny.5 mph60%30.38 "Hg10 mi
11:56 AM59 °FSunny.3 mph62%30.42 "Hg10 mi
10:56 AM56 °FSunny.6 mph72%30.44 "Hg9 mi
9:56 AM53 °FSunny.No wind77%30.45 "Hg9 mi
8:56 AM52 °FSunny.No wind80%30.45 "Hg5 mi
7:56 AM47 °FFog.No wind86%30.45 "Hg5 mi
6:56 AM44 °FFog.No wind89%30.44 "Hg6 mi
5:56 AM45 °FClear.6 mph86%30.42 "Hg9 mi
4:56 AM44 °FClear.No wind89%30.41 "Hg10 mi
3:56 AM45 °FClear.No wind86%30.40 "Hg10 mi
2:56 AM45 °FClear.No wind86%30.40 "Hg10 mi
1:56 AM47 °FClear.No wind86%30.41 "Hg10 mi
12:56 AM49 °FClear.No wind80%30.42 "Hg10 mi
11:56 PM
Fri, Feb 5
51 °FClear.No wind80%30.42 "Hg10 mi
10:56 PM52 °FClear.No wind75%30.44 "Hg10 mi
Weather by CustomWeather, © 2016

See weather overviewHow to use our weather pages